IRIDIUM 134

Last updated on Sun Jun 21 2026 00:03:14 GMT+0000 (Coordinated Universal Time)

1 43075U 17083F 26171.40531435 .00000192 00000+0 61567-4 0 9990 2 43075 86.3970 320.7214 0002099 92.4966 267.6470 14.34218431444565
UTC large
Height (km)
Speed (km/s)
/
Latitude / Longitude
Inclination (degrees)
Orbital Period (minutes)
Azimuth
Elevation
Range (km)
Doppler Factor

Next 0 passes for location: London (51.5072 / 0.1276)

No passes found over London.
IRIDIUM 134